Weather History for Covington, KY

Change the Weather History Date:

Tuesday, December 31, 2013

  Actual Average Record
Temperature  
Mean Temperature 28 °F 31 °F  
Max Temperature 34 °F 39 °F 72 °F (1875)
Min Temperature 21 °F 24 °F -2 °F (1976)
Degree Days  
Heating Degree Days 37 34  
Month to date heating degree days 915 959  
Since 1 July heating degree days 1951 1919  
Cooling Degree Days 0 0  
Month to date cooling degree days 0 0  
Year to date cooling degree days 1150 1121  
Moisture  
Dew Point 16 °F    
Average Humidity 62    
Maximum Humidity 77    
Minimum Humidity 47    
Precipitation  
Precipitation T in 0.10 in 2.50 in (1871)
Month to date precipitation 4.93 3.37  
Year to date precipitation 49.50 42.52  
Snow  
Snow T in 0.20 in 5.60 in (1960)
Month to date snowfall 10.4 4.8  
Since 1 July snowfall 12.8 5.6  
Snow Depth 0.00 in    
Sea Level Pressure  
Sea Level Pressure 30.29 in    
Wind  
Wind Speed 9 mph (SW)    
Max Wind Speed 23 mph    
Max Gust Speed 28 mph    
Visibility 10 miles    
Events Snow    
T = Trace of Precipitation, MM = Missing Value Source: NWS Daily Summary

Daily Weather History Graph

Daily Weather History Graph

Search for Another Location

Airport:

Trip Planner

Search our weather history database for the weather conditions in past years. The results will help you decide how hot, cold, wet, or windy it might be!

Date:

Astronomy

Dec. 31, 2013 Rise Set
Actual Time 7:57 AM EST 5:26 PM EST
Civil Twilight 7:27 AM EST 5:56 PM EST
Nautical Twilight 6:54 AM EST 6:29 PM EST
Astronomical Twilight 6:21 AM EST 7:02 PM EST
Moon 6:49 AM EST (12/31) 5:01 PM EST (12/31)
Length of Visible Light 10h 28m
Length of Day
9h 28m
Waning Crescent, 1% of the Moon is Illuminated
Dec 31
Waning Crescent
Jan 1
New
Jan 7
First Quarter
Jan 15
Full
Jan 24
Last Quarter

Hourly Weather History & Observations

Time (EST) Temp. Windchill Dew Point Humidity Pressure Visibility Wind Dir Wind Speed Gust Speed Precip Events Conditions
12:52 AM 23.0 °F 13.9 °F 15.1 °F 72% 30.20 in 10.0 mi SSW 8.1 mph - N/A   Scattered Clouds
1:52 AM 23.0 °F 11.7 °F 14.0 °F 68% 30.20 in 10.0 mi SW 11.5 mph - N/A   Overcast
2:52 AM 23.0 °F 14.7 °F 14.0 °F 68% 30.22 in 10.0 mi WSW 6.9 mph - N/A   Overcast
3:52 AM 24.1 °F 16.0 °F 14.0 °F 65% 30.20 in 10.0 mi WSW 6.9 mph - N/A   Overcast
4:52 AM 24.1 °F 15.2 °F 14.0 °F 65% 30.20 in 10.0 mi WSW 8.1 mph - N/A   Overcast
5:52 AM 24.1 °F 14.4 °F 14.0 °F 65% 30.20 in 10.0 mi West 9.2 mph - N/A   Overcast
6:52 AM 24.1 °F 12.5 °F 14.0 °F 65% 30.22 in 10.0 mi West 12.7 mph - N/A   Overcast
7:52 AM 24.1 °F 12.0 °F 15.1 °F 69% 30.27 in 10.0 mi West 13.8 mph 20.7 mph N/A   Overcast
7:59 AM 24.8 °F 14.6 °F 15.8 °F 69% 30.24 in 10.0 mi WSW 10.4 mph - N/A   Overcast
8:52 AM 24.1 °F 12.5 °F 15.1 °F 69% 30.31 in 10.0 mi West 12.7 mph 21.9 mph N/A   Overcast
9:52 AM 25.0 °F 14.8 °F 15.1 °F 66% 30.36 in 10.0 mi West 10.4 mph 21.9 mph 0.00 in Snow Light Snow
10:52 AM 28.0 °F 15.3 °F 16.0 °F 61% 30.39 in 10.0 mi West 18.4 mph 24.2 mph 0.00 in   Mostly Cloudy
11:19 AM 28.4 °F 16.6 °F 15.8 °F 59% 30.35 in 10.0 mi WNW 16.1 mph 24.2 mph N/A   Scattered Clouds
11:52 AM 28.9 °F 18.2 °F 16.0 °F 58% 30.37 in 10.0 mi WNW 13.8 mph - N/A   Partly Cloudy
12:52 PM 30.9 °F 21.7 °F 16.0 °F 54% 30.37 in 10.0 mi WSW 11.5 mph 19.6 mph N/A   Partly Cloudy
2:52 PM 34.0 °F 27.2 °F 16.0 °F 48% 30.34 in 10.0 mi WSW 8.1 mph - N/A   Mostly Cloudy
3:52 PM 34.0 °F 28.8 °F 16.0 °F 48% 30.32 in 10.0 mi Variable 5.8 mph - N/A   Mostly Cloudy
4:52 PM 33.1 °F 26.1 °F 16.0 °F 50% 30.32 in 10.0 mi SSW 8.1 mph - N/A   Scattered Clouds
5:52 PM 32.0 °F 28.7 °F 17.1 °F 54% 30.33 in 10.0 mi SSW 3.5 mph - N/A   Scattered Clouds
6:52 PM 28.0 °F 22.8 °F 18.0 °F 66% 30.33 in 10.0 mi South 4.6 mph - N/A   Clear
7:52 PM 26.1 °F 18.4 °F 18.0 °F 71% 30.32 in 10.0 mi South 6.9 mph - N/A   Partly Cloudy
8:52 PM 27.0 °F 18.7 °F 19.0 °F 72% 30.31 in 10.0 mi South 8.1 mph - N/A   Partly Cloudy
9:52 PM 28.0 °F 20.8 °F 19.0 °F 69% 30.30 in 10.0 mi South 6.9 mph - N/A   Partly Cloudy
10:52 PM 27.0 °F 19.5 °F 19.0 °F 72% 30.28 in 10.0 mi South 6.9 mph - N/A   Partly Cloudy
11:52 PM 28.0 °F 20.8 °F 19.9 °F 72% 30.28 in 10.0 mi SSW 6.9 mph - N/A   Partly Cloudy